Weather History for KHEI - May, 2013

Change the Weather History Date:

Thursday, May 30, 2013

  Actual Average Record
Temperature  
Mean Temperature 58 °F -  
Max Temperature 65 °F 70 °F 84 °F (2002)
Min Temperature 51 °F 44 °F 29 °F (2015)
Degree Days  
Heating Degree Days 7    
Cooling Degree Days 0 0  
Month to date cooling degree days 7 0  
Year to date cooling degree days 7 0  
Growing Degree Days 8 (Base 50)    
Moisture  
Dew Point 55 °F    
Average Humidity 91    
Maximum Humidity 100    
Minimum Humidity 78    
Precipitation  
Precipitation 1.25 in 0.08 in 1.25 in (2013)
Month to date precipitation 7.32 2.27  
Year to date precipitation 8.55 5.23  
Sea Level Pressure  
Sea Level Pressure 29.37 in    
Wind  
Wind Speed 14 mph (North)    
Max Wind Speed 26 mph    
Max Gust Speed 36 mph    
Visibility 7 miles    
Events Rain    
T = Trace of Precipitation, MM = Missing Value Source: NWS Daily Summary

Daily Weather History Graph

Daily Weather History Graph

Search for Another Location

Airport or City:

Trip Planner

Search our weather history database for the weather conditions in past years. The results will help you decide how hot, cold, wet, or windy it might be!

Date:

Astronomy

May. 30, 2013 Rise Set
Actual Time 5:04 AM MDT 8:32 PM MDT
Civil Twilight 4:27 AM MDT 9:09 PM MDT
Nautical Twilight 3:38 AM MDT 9:59 PM MDT
Astronomical Twilight 2:34 AM MDT 11:03 PM MDT
Moon 12:22 AM MDT (5/30) 11:28 AM MDT (5/30)
Length of Visible Light 16h 42m
Length of Day
15h 28m
Waning Gibbous, 61% of the Moon is Illuminated
May 30
Waning Gibbous
May 31
Last Quarter
Jun 8
New
Jun 16
First Quarter
Jun 23
Full

Hourly Weather History & Observations

Time (MDT) Temp. Dew Point Humidity Pressure Visibility Wind Dir Wind Speed Gust Speed Precip Events Conditions
12:53 AM 57.9 °F 55.0 °F 90% 29.48 in 4.0 mi NE 11.5 mph - 0.01 in Rain Light Rain
12:56 AM 57.2 °F 55.4 °F 94% 29.51 in 3.0 mi ENE 11.5 mph - 0.01 in Rain Rain
1:02 AM 57.2 °F 55.4 °F 94% 29.51 in 2.5 mi ENE 12.7 mph - 0.03 in Rain Heavy Rain
1:09 AM 57.2 °F 55.4 °F 94% 29.51 in 5.0 mi ENE 11.5 mph - 0.04 in Rain Light Rain
1:24 AM 57.2 °F 55.4 °F 94% 29.50 in 7.0 mi ENE 12.7 mph - 0.06 in Rain Light Rain
1:44 AM 57.2 °F 55.4 °F 94% 29.49 in 8.0 mi NE 13.8 mph - 0.08 in Rain Light Rain
1:53 AM 57.0 °F 55.0 °F 93% 29.44 in 10.0 mi NE 16.1 mph - 0.08 in Rain Light Rain
2:06 AM 57.2 °F 55.4 °F 94% 29.47 in 7.0 mi NE 15.0 mph - 0.01 in Rain Light Rain
2:53 AM 57.0 °F 55.0 °F 93% 29.42 in 8.0 mi NE 17.3 mph - 0.04 in Rain Light Rain
3:53 AM 55.9 °F 55.0 °F 97% 29.40 in 2.5 mi NE 19.6 mph - 0.08 in Rain Heavy Rain
4:09 AM 57.2 °F 55.4 °F 94% 29.44 in 5.0 mi NE 17.3 mph - 0.05 in Rain Light Rain
4:53 AM 57.0 °F 55.0 °F 93% 29.38 in 7.0 mi NE 17.3 mph - 0.09 in Rain Light Rain
5:53 AM 57.0 °F 55.0 °F 93% 29.38 in 7.0 mi NE 11.5 mph - 0.05 in Rain Light Rain
6:12 AM 57.2 °F 55.4 °F 94% 29.41 in 6.0 mi NNE 13.8 mph - 0.02 in Rain Rain
6:33 AM 57.2 °F 55.4 °F 94% 29.41 in 8.0 mi NNE 11.5 mph - 0.05 in Rain Light Rain
6:53 AM 57.0 °F 55.0 °F 93% 29.37 in 4.0 mi NNE 8.1 mph - 0.08 in Rain Rain
7:22 AM 57.2 °F 55.4 °F 94% 29.39 in 4.0 mi NNE 8.1 mph - 0.04 in Rain Rain
7:30 AM 57.2 °F 55.4 °F 94% 29.39 in 4.0 mi NNE 5.8 mph - 0.06 in Rain Rain
7:38 AM 57.2 °F 55.4 °F 94% 29.39 in 6.0 mi NE 6.9 mph - 0.08 in Rain Rain
7:53 AM 57.0 °F 55.9 °F 96% 29.36 in 4.0 mi NE 6.9 mph - 0.10 in Rain Rain
8:25 AM 57.2 °F 55.4 °F 94% 29.38 in 4.0 mi East 9.2 mph - 0.05 in Rain Rain
8:32 AM 57.2 °F 55.4 °F 94% 29.38 in 5.0 mi East 8.1 mph - 0.06 in Rain Rain
8:50 AM 57.2 °F 55.4 °F 94% 29.38 in 8.0 mi ESE 8.1 mph - 0.08 in Rain Light Rain
8:53 AM 57.9 °F 55.9 °F 93% 29.35 in 8.0 mi ESE 6.9 mph - 0.08 in Rain Light Rain
8:59 AM 57.2 °F 55.4 °F 94% 29.38 in 7.0 mi ESE 6.9 mph - 0.01 in Rain Light Rain
9:12 AM 57.2 °F 55.4 °F 94% 29.37 in 6.0 mi ESE 6.9 mph - 0.03 in Rain Rain
9:53 AM 57.9 °F 55.9 °F 93% 29.34 in 4.0 mi East 5.8 mph - 0.13 in Rain Rain
10:53 AM 57.0 °F 55.9 °F 96% 29.34 in 4.0 mi North 6.9 mph - 0.17 in Rain Rain
11:05 AM 57.2 °F 55.4 °F 94% 29.35 in 2.5 mi North 8.1 mph - 0.07 in Rain Heavy Rain
11:16 AM 57.2 °F 55.4 °F 94% 29.35 in 4.0 mi North 9.2 mph - 0.10 in Rain Rain
11:53 AM 55.9 °F 54.0 °F 93% 29.31 in 4.0 mi North 11.5 mph - 0.24 in Rain Rain
12:51 PM 57.2 °F 55.4 °F 94% 29.33 in 5.0 mi NNW 11.5 mph - 0.07 in Rain Light Rain
12:53 PM 57.0 °F 55.0 °F 93% 29.31 in 6.0 mi NNW 9.2 mph - 0.07 in Rain Light Rain
1:43 PM 57.2 °F 55.4 °F 94% 29.33 in 6.0 mi NW 10.4 mph - 0.05 in Rain Light Rain
1:53 PM 59.0 °F 55.9 °F 90% 29.29 in 3.0 mi NW 11.5 mph - 0.06 in Rain Rain
2:53 PM 61.0 °F 57.0 °F 87% 29.29 in 10.0 mi West 13.8 mph - 0.00 in   Mostly Cloudy
3:06 PM 62.6 °F 55.4 °F 77% 29.32 in 10.0 mi WNW 13.8 mph - N/A   Scattered Clouds
3:20 PM 62.6 °F 55.4 °F 77% 29.31 in 10.0 mi WNW 13.8 mph - N/A   Mostly Cloudy
3:27 PM 62.6 °F 55.4 °F 77% 29.31 in 10.0 mi West 16.1 mph - N/A   Scattered Clouds
3:53 PM 63.0 °F 55.9 °F 78% 29.27 in 10.0 mi WNW 13.8 mph - N/A   Clear
4:53 PM 63.0 °F 55.0 °F 75% 29.29 in 10.0 mi West 16.1 mph - N/A   Clear
5:13 PM 62.6 °F 55.4 °F 77% 29.32 in 10.0 mi West 13.8 mph - N/A   Mostly Cloudy
5:53 PM 61.0 °F 55.9 °F 83% 29.30 in 10.0 mi West 15.0 mph - N/A   Overcast
6:53 PM 57.9 °F 54.0 °F 87% 29.32 in 10.0 mi WNW 19.6 mph 25.3 mph N/A   Overcast
7:04 PM 57.2 °F 53.6 °F 88% 29.34 in 10.0 mi WNW 20.7 mph 26.5 mph 0.01 in   Overcast
7:09 PM 57.2 °F 53.6 °F 88% 29.35 in 10.0 mi West 18.4 mph 26.5 mph 0.01 in   Overcast
7:50 PM 55.4 °F 51.8 °F 88% 29.36 in 10.0 mi West 18.4 mph - 0.01 in   Overcast
7:53 PM 55.9 °F 52.0 °F 87% 29.34 in 10.0 mi WNW 17.3 mph - 0.01 in   Overcast
8:21 PM 53.6 °F 51.8 °F 94% 29.36 in 10.0 mi West 20.7 mph 27.6 mph N/A   Overcast
8:53 PM 53.1 °F 51.1 °F 93% 29.37 in 10.0 mi West 18.4 mph 24.2 mph N/A   Overcast
9:30 PM 53.6 °F 50.0 °F 88% 29.39 in 10.0 mi WNW 17.3 mph - N/A   Overcast
9:53 PM 53.1 °F 50.0 °F 89% 29.39 in 10.0 mi WNW 13.8 mph 23.0 mph N/A   Overcast
10:53 PM 53.1 °F 48.9 °F 86% 29.37 in 10.0 mi WNW 23.0 mph 28.8 mph N/A   Overcast
11:53 PM 52.0 °F 48.9 °F 89% 29.39 in 10.0 mi WNW 19.6 mph 27.6 mph N/A   Overcast